This demonstration page uses our WeatherBlox Daily Observations layout. Learn more.

39.92423, -83.80882

Hourly Observations for April 3, 2015

Temp ( °F °C ) Dew Point ( °F °C ) Humidity (%) Winds ( mph kmh ) Pressure ( in mb ) Visibility ( mi km ) Precip ( " mm )
12:13 am 00:13 Cloudy with Mist and Fog 57 14 57 14 100 100 SSW 8 13 29.88 1012 6 9.65604 0 0
12:31 am 00:31 Cloudy with Mist and Fog 57 14 57 14 100 100 SW 7 11 29.88 1012 6 9.65604 0 0
12:56 am 00:56 Cloudy with Mist and Fog 58 14.4 58 14.4 100 100 SW 8 13 29.88 1012 5 8.0467 0 0
1:24 am 01:24 Cloudy with Light Rain 57 14 57 14 100 100 SSW 6 9 29.88 1012 3 4.82802 0 0.0254
1:37 am 01:37 Cloudy with Mist and Fog 57 14 57 14 100 100 SSW 7 11 29.88 1012 4 6.43736 0 0.0254
1:56 am 01:56 Cloudy with Mist and Fog 58 14.4 58 14.4 100 100 SW 6 9 29.86 1011 4 6.43736 0 0.0254
2:23 am 02:23 Cloudy with Mist and Fog 57 14 57 14 100 100 SSW 5 7 29.85 1011 2.5 4.02335 0 0
2:56 am 02:56 Cloudy with Mist and Fog 58 14.4 58 14.4 100 100 NNW 3 6 29.85 1011 2 3.21868 0 0
3:02 am 03:02 Cloudy with Mist and Fog 57 14 57 14 100 100 Calm 29.85 1011 1.25 2.011675 0 0
3:06 am 03:06 Cloudy with Mist and Fog 57 14 57 14 100 100 Calm 29.85 1011 0.75 1.207005 0 0
3:13 am 03:13 Cloudy with Fog 57 14 57 14 100 100 NNE 3 6 29.83 1010 0.25 0.402335 0 0
3:23 am 03:23 Cloudy with Mist and Fog 55 13 55 13 100 100 N 12 19 29.88 1012 0.75 1.207005 0 0
3:26 am 03:26 Cloudy with Mist and Fog 55 13 55 13 100 100 N 10 17 29.85 1011 1.5 2.41401 0 0
3:29 am 03:29 Cloudy with Mist and Fog 55 13 55 13 100 100 N 10 17 29.85 1011 3 4.82802 0 0
3:38 am 03:38 Cloudy with Mist and Fog 55 13 55 13 100 100 N 9 15 29.88 1012 3 4.82802 0 0
3:56 am 03:56 Cloudy with Mist and Fog 54 12.2 54 12.2 100 100 NNE 10 17 29.85 1011 3 4.82802 0 0
4:34 am 04:34 Cloudy with Mist and Fog 54 12 54 12 100 100 NNE 8 13 29.85 1011 2.5 4.02335 0 0
4:46 am 04:46 Cloudy with Mist and Fog 54 12 54 12 100 100 NNE 6 9 29.85 1011 2.5 4.02335 0 0
4:56 am 04:56 Cloudy with Mist and Fog 54 12.2 54 12.2 100 100 NE 6 9 29.86 1011 2.5 4.02335 0 0
5:37 am 05:37 Cloudy with Mist and Fog 54 12 54 12 100 100 ENE 9 15 29.85 1011 4 6.43736 0 0
5:56 am 05:56 Cloudy with Mist and Fog 53 11.6 52 11.1 97 97 ENE 7 11 29.85 1011 6 9.65604 0 0
6:32 am 06:32 Cloudy with Mist and Fog 52 11 52 11 100 100 ESE 7 11 29.85 1011 3 4.82802 0 0
6:38 am 06:38 Cloudy with Mist and Fog 52 11 52 11 100 100 E 8 13 29.85 1011 2 3.21868 0 0
6:56 am 06:56 Cloudy with Mist and Fog 52 11.1 52 11.1 100 100 E 6 9 29.85 1011 3 4.82802 0 0
7:18 am 07:18 Cloudy with Light Rain 52 11 52 11 100 100 E 9 15 29.85 1011 2 3.21868 0 0.0254
7:32 am 07:32 Cloudy with Mist and Fog 52 11 52 11 100 100 SE 7 11 29.88 1012 3 4.82802 0 0.0254
7:45 am 07:45 Cloudy with Mist and Fog 52 11 52 11 100 100 SE 9 15 29.85 1011 1.75 2.816345 0 0.0254
7:56 am 07:56 Cloudy with Mist and Fog 52 11.1 52 11.1 100 100 SE 13 20 29.85 1011 2 3.21868 0 0.0254
8:05 am 08:05 Cloudy with Mist and Fog 52 11 52 11 100 100 SE 10 17 29.85 1011 1.75 2.816345 0 0
8:15 am 08:15 Cloudy with Mist and Fog 52 11 52 11 100 100 SE 6 9 29.85 1011 1.5 2.41401 0 0
8:23 am 08:23 Cloudy with Mist and Fog 52 11 52 11 100 100 ESE 6 9 29.85 1011 1.25 2.011675 0 0
8:28 am 08:28 Cloudy with Mist and Fog 52 11 52 11 100 100 E 6 9 29.85 1011 1 1.60934 0 0
8:56 am 08:56 Cloudy with Mist and Fog 52 11.1 52 11.1 100 100 ESE 6 9 29.84 1010 1.25 2.011675 0.01 0.254
9:06 am 09:06 Cloudy with Mist and Fog 54 12 54 12 100 100 Calm 29.85 1011 1.5 2.41401 0 0.0254
9:21 am 09:21 Cloudy with Mist and Fog 54 12 54 12 100 100 ESE 3 6 29.85 1011 1.75 2.816345 0 0.0254
9:41 am 09:41 Cloudy with Mist and Fog 54 12 54 12 100 100 Calm 29.85 1011 2 3.21868 0 0.0254
9:56 am 09:56 Mostly Cloudy with Mist and Fog 55 12.7 55 12.7 100 100 Calm 29.84 1011 3 4.82802 0 0.0254
10:56 am 10:56 Mostly Cloudy with Mist and Fog 59 15 58 14.4 96 96 WSW 7 11 29.85 1011 5 8.0467 0 0
11:16 am 11:16 Cloudy with Mist and Fog 59 15 57 14 94 94 SW 8 13 29.88 1012 5 8.0467 0 0
11:34 am 11:34 Cloudy with Mist and Fog 61 16 57 14 88 88 SW 9 15 29.88 1012 6 9.65604 0 0
11:56 am 11:56 Cloudy with Mist and Fog 61 16.1 58 14.4 90 90 WSW 13 20 29.86 1011 6 9.65604 0 0
12:56 pm 12:56 Cloudy with Mist and Fog 60 15.5 57 13.8 90 90 SW 14 22 29.86 1011 4 6.43736 0 0
1:03 pm 13:03 Cloudy with Mist and Fog 59 15 57 14 94 94 SW 14 22 29.85 1011 4 6.43736 0 0
1:19 pm 13:19 Cloudy with Light Rain 59 15 57 14 94 94 SSW 13 20 29.85 1011 2.5 4.02335 0.01 0.254
1:24 pm 13:24 Cloudy with Light Rain 59 15 57 14 94 94 SSW 14 22 29.83 1010 3 4.82802 0.02 0.508
1:56 pm 13:56 Mostly Cloudy with Mist and Fog 59 15 57 13.8 93 93 S 13 20 29.75 1007 6 9.65604 0.02 0.508
2:16 pm 14:16 Mostly Cloudy with Mist and Fog 61 16 57 14 88 88 SW 10 17 29.77 1008 6 9.65604 0 0
2:37 pm 14:37 Mostly Cloudy 61 16 57 14 88 88 SW 12 19 29.77 1008 7 11.26538 0 0
2:56 pm 14:56 Cloudy 60 15.5 58 14.4 93 93 SW 12 19 29.79 1009 7 11.26538 0 0
3:33 pm 15:33 Mostly Cloudy with Mist and Fog 61 16 57 14 88 88 WSW 12 19 29.77 1008 6 9.65604 0 0
3:44 pm 15:44 Mostly Cloudy with Rain 57 14 55 13 94 94 W 6 9 29.8 1009 3 4.82802 0.01 0.254
3:56 pm 15:56 Cloudy with Mist and Fog 57 13.8 56 13.3 97 97 WNW 9 15 29.79 1009 6 9.65604 0.01 0.254
4:04 pm 16:04 Cloudy with Heavy Rain 57 14 55 13 94 94 WNW 13 20 29.8 1009 1.75 2.816345 0.04 1.016
4:10 pm 16:10 Cloudy with Rain 55 13 55 13 100 100 WNW 17 28 29.8 1009 1 1.60934 0.07 1.778
4:13 pm 16:13 Cloudy with Heavy Rain 55 13 54 12 94 94 NW 16 26 29.8 1009 0.75 1.207005 0.09 2.286
4:18 pm 16:18 Cloudy with Heavy Rain 54 12 54 12 100 100 NW 22 35 29.8 1009 0.75 1.207005 0.12 3.048
4:24 pm 16:24 Cloudy with Light Rain 52 11 52 11 100 100 NNW 17 28 29.8 1009 1 1.60934 0.12 3.048
4:27 pm 16:27 Cloudy with Rain 52 11 50 10 94 94 NNW 23 37 29.83 1010 1.5 2.41401 0.12 3.048
4:40 pm 16:40 Mostly Cloudy with Light Rain 48 9 48 9 100 100 NNW 17 28 29.8 1009 2 3.21868 0.13 3.302
4:45 pm 16:45 Mostly Cloudy with Mist and Fog 48 9 48 9 100 100 N 14 22 29.77 1008 3 4.82802 0.13 3.302
4:56 pm 16:56 Cloudy with Mist and Fog 49 9.4 48 8.8 96 96 N 16 26 29.79 1009 2.5 4.02335 0.13 3.302
5:10 pm 17:10 Cloudy with Mist and Fog 48 9 46 8 94 94 N 12 19 29.8 1009 3 4.82802 0 0
5:19 pm 17:19 Cloudy with Mist and Fog 48 9 46 8 94 94 N 13 20 29.8 1009 2.5 4.02335 0 0
5:35 pm 17:35 Cloudy with Mist and Fog 48 9 46 8 94 94 N 14 22 29.8 1009 4 6.43736 0 0
5:56 pm 17:56 Cloudy with Mist and Fog 48 8.8 47 8.3 97 97 N 8 13 29.8 1009 3 4.82802 0 0
6:11 pm 18:11 Cloudy with Light Rain 48 9 46 8 94 94 NNW 12 19 29.83 1010 2.5 4.02335 0 0.0254
6:15 pm 18:15 Cloudy with Light Rain 48 9 46 8 94 94 NW 15 24 29.83 1010 1.75 2.816345 0.01 0.254
6:30 pm 18:30 Cloudy with Heavy Rain 48 9 46 8 94 94 N 14 22 29.83 1010 1.5 2.41401 0.02 0.508
6:56 pm 18:56 Cloudy with Rain 47 8.3 45 7.2 93 93 NNW 21 33 29.85 1011 2 3.21868 0.06 1.524
7:06 pm 19:06 Cloudy with Light Rain 46 8 45 7 93 93 NNW 20 31 29.88 1012 3 4.82802 0 0.0254
7:13 pm 19:13 Cloudy with Mist and Fog 46 8 45 7 93 93 NNW 21 33 29.88 1012 3 4.82802 0 0.0254
7:27 pm 19:27 Cloudy with Light Rain 45 7 43 6 93 93 NNW 17 28 29.91 1013 4 6.43736 0 0.0254
7:39 pm 19:39 Cloudy with Mist and Fog 45 7 43 6 93 93 NNW 17 28 29.91 1013 5 8.0467 0 0.0254
7:47 pm 19:47 Cloudy with Light Rain 45 7 43 6 93 93 NNW 16 26 29.91 1013 4 6.43736 0 0.0254
7:56 pm 19:56 Cloudy with Light Rain 45 7.2 43 6.1 93 93 NNW 17 28 29.88 1012 5 8.0467 0 0.0254
8:16 pm 20:16 Cloudy 45 7 43 6 93 93 N 16 26 29.91 1013 7 11.26538 0 0.0254
8:56 pm 20:56 Cloudy 44 6.6 42 5.5 93 93 NNW 7 11 29.91 1013 8 12.87472 0 0.0254
9:56 pm 21:56 Cloudy 44 6.6 43 6.1 97 97 WNW 7 11 29.94 1014 7 11.26538 0 0
10:56 pm 22:56 Partly Cloudy with Mist and Fog 44 6.6 42 5.5 93 93 WNW 12 19 29.97 1015 6 9.65604 0 0
11:56 pm 23:56 Mostly Clear 43 6.1 36 2.2 76 76 NW 15 24 30.01 1016 8 12.87472 0 0

Powered by AerisWeather